PBD179 UUWW-URMM

Flight info

Callsign PBD179
Flight time 2h 51m
Altitude 35000
Route TOGMO3B TOGMO M56 ABAGI B105 NATIT DCT MOLED N50 LIDUS G242 ZG DCT ITAKA DCT OBBUD DCT AMKOL DCT GOTIK DCT MEMZA A962 OKARU OKARU5B
Aircraft B738/M-SDE2E3FGHIRWXY/LB1

Departure

Time 2026-04-22 05:25
Airport Vnukovo International Airport (UUWW)

Arrival

Time 2026-04-22 08:17
Airport Mineralnye Vody Airport (URMM)
Time Latitude Longitude Altitude Speed Heading
2026-04-22 04:09 55.60238 37.27728 677 ft 0 kts 89°
2026-04-22 05:19 55.60238 37.27748 678 ft 4 kts 89°
2026-04-22 05:19 55.60230 37.27819 679 ft 8 kts 127°
2026-04-22 05:19 55.60181 37.27860 679 ft 8 kts 159°
2026-04-22 05:20 55.60134 37.27907 679 ft 8 kts 142°
2026-04-22 05:20 55.60098 37.27979 679 ft 8 kts 123°
2026-04-22 05:20 55.60075 37.28082 679 ft 10 kts 99°
2026-04-22 05:20 55.60077 37.28206 679 ft 10 kts 84°
2026-04-22 05:21 55.60084 37.28327 678 ft 10 kts 84°
2026-04-22 05:21 55.60102 37.28442 675 ft 10 kts 58°
2026-04-22 05:21 55.60146 37.28530 678 ft 9 kts 46°
2026-04-22 05:21 55.60190 37.28613 676 ft 9 kts 46°
2026-04-22 05:22 55.60204 37.28712 678 ft 9 kts 116°
2026-04-22 05:22 55.60164 37.28794 678 ft 9 kts 134°
2026-04-22 05:22 55.60115 37.28864 677 ft 9 kts 153°
2026-04-22 05:22 55.60056 37.28894 679 ft 9 kts 166°
2026-04-22 05:23 55.59999 37.28918 683 ft 8 kts 167°
2026-04-22 05:23 55.59942 37.28942 682 ft 8 kts 166°
2026-04-22 05:23 55.59888 37.28966 685 ft 8 kts 166°
2026-04-22 05:23 55.59835 37.28989 685 ft 8 kts 166°
2026-04-22 05:24 55.59788 37.28952 688 ft 8 kts 233°
2026-04-22 05:24 55.59766 37.28864 685 ft 8 kts 248°
2026-04-22 05:24 55.59743 37.28764 687 ft 15 kts 248°
2026-04-22 05:24 55.59615 37.28196 680 ft 91 kts 248°
2026-04-22 05:25 55.59285 37.26714 671 ft 165 kts 249°
2026-04-22 05:25 55.58827 37.24666 1183 ft 191 kts 249°
2026-04-22 05:25 55.58229 37.22470 2161 ft 203 kts 231°
2026-04-22 05:25 55.57071 37.21069 3299 ft 203 kts 215°
2026-04-22 05:26 55.56185 37.19211 4261 ft 200 kts 248°
2026-04-22 05:26 55.55506 37.16993 4935 ft 217 kts 241°
2026-04-22 05:26 55.54581 37.14722 5249 ft 237 kts 221°
2026-04-22 05:26 55.53063 37.13541 5730 ft 245 kts 193°
2026-04-22 05:27 55.51396 37.12902 6280 ft 251 kts 194°
2026-04-22 05:27 55.49697 37.12240 6950 ft 251 kts 187°
2026-04-22 05:27 55.47973 37.12638 7471 ft 257 kts 155°
2026-04-22 05:27 55.46417 37.14390 7679 ft 276 kts 141°
2026-04-22 05:28 55.44875 37.16511 8127 ft 286 kts 140°
2026-04-22 05:28 55.43294 37.18690 8752 ft 289 kts 140°
2026-04-22 05:28 55.41690 37.20876 8978 ft 295 kts 141°
2026-04-22 05:28 55.40064 37.23080 8980 ft 294 kts 141°
2026-04-22 05:29 55.38446 37.25252 8978 ft 291 kts 141°
2026-04-22 05:29 55.36863 37.27388 8983 ft 291 kts 139°
2026-04-22 05:29 55.35411 37.29850 8990 ft 290 kts 131°
2026-04-22 05:29 55.34038 37.32467 8982 ft 292 kts 130°
2026-04-22 05:30 55.32658 37.35082 8991 ft 292 kts 131°
2026-04-22 05:30 55.31503 37.37970 8978 ft 288 kts 107°
2026-04-22 05:30 55.30972 37.41331 8992 ft 286 kts 101°
2026-04-22 05:30 55.30499 37.44723 8979 ft 286 kts 101°
2026-04-22 05:31 55.30024 37.48115 8969 ft 286 kts 101°
2026-04-22 05:31 55.29549 37.51457 8963 ft 286 kts 101°
2026-04-22 05:31 55.29064 37.54835 8966 ft 285 kts 101°
2026-04-22 05:31 55.28574 37.58208 8966 ft 285 kts 102°
2026-04-22 05:32 55.28085 37.61566 8967 ft 284 kts 102°
2026-04-22 05:32 55.27531 37.64895 8959 ft 286 kts 112°
2026-04-22 05:32 55.26292 37.67626 9057 ft 292 kts 139°
2026-04-22 05:32 55.24648 37.69766 9665 ft 296 kts 143°
2026-04-22 05:33 55.22957 37.71866 10202 ft 304 kts 143°
2026-04-22 05:33 55.21189 37.74080 10469 ft 319 kts 143°
2026-04-22 05:33 55.19396 37.76343 10998 ft 325 kts 142°
2026-04-22 05:33 55.17557 37.78671 11658 ft 327 kts 142°
2026-04-22 05:34 55.15770 37.81143 12326 ft 329 kts 134°
2026-04-22 05:34 55.14185 37.84038 12856 ft 331 kts 130°
2026-04-22 05:34 55.12625 37.87014 12833 ft 332 kts 131°
2026-04-22 05:34 55.11050 37.89956 12852 ft 331 kts 131°
2026-04-22 05:35 55.09462 37.92881 12908 ft 335 kts 131°
2026-04-22 05:35 55.07840 37.95842 13515 ft 338 kts 132°
2026-04-22 05:35 55.06211 37.98797 14269 ft 338 kts 132°
2026-04-22 05:35 55.04577 38.01757 14936 ft 340 kts 132°
2026-04-22 05:36 55.02948 38.04694 15562 ft 343 kts 132°
2026-04-22 05:36 55.01277 38.07690 16195 ft 347 kts 132°
2026-04-22 05:36 54.99584 38.10719 16845 ft 350 kts 132°
2026-04-22 05:36 54.97879 38.13769 17480 ft 353 kts 132°
2026-04-22 05:37 54.96157 38.16846 18104 ft 357 kts 132°
2026-04-22 05:37 54.94421 38.19946 18683 ft 359 kts 133°
2026-04-22 05:37 54.92670 38.23069 18831 ft 360 kts 133°
2026-04-22 05:37 54.90927 38.26173 18866 ft 359 kts 133°
2026-04-22 05:38 54.89177 38.29287 18883 ft 361 kts 133°
2026-04-22 05:38 54.87421 38.32406 18880 ft 361 kts 133°
2026-04-22 05:38 54.85689 38.35480 18876 ft 361 kts 132°
2026-04-22 05:38 54.84160 38.38920 18918 ft 363 kts 118°
2026-04-22 05:39 54.82953 38.42781 19397 ft 364 kts 116°
2026-04-22 05:39 54.81769 38.46651 20130 ft 362 kts 116°
2026-04-22 05:39 54.80567 38.50502 20694 ft 365 kts 117°
2026-04-22 05:39 54.79331 38.54377 20862 ft 370 kts 117°
2026-04-22 05:40 54.78076 38.58254 20888 ft 368 kts 118°
2026-04-22 05:40 54.76788 38.62091 20871 ft 369 kts 124°
2026-04-22 05:40 54.75004 38.65200 20885 ft 375 kts 145°
2026-04-22 05:40 54.72749 38.67608 21012 ft 388 kts 149°
2026-04-22 05:41 54.70379 38.69996 21136 ft 402 kts 149°
2026-04-22 05:41 54.67937 38.72459 21418 ft 410 kts 149°
2026-04-22 05:41 54.65474 38.74984 21902 ft 412 kts 148°
2026-04-22 05:41 54.63011 38.77534 22430 ft 414 kts 148°
2026-04-22 05:42 54.60533 38.80107 22933 ft 416 kts 148°
2026-04-22 05:42 54.58044 38.82692 23384 ft 419 kts 148°
2026-04-22 05:42 54.55537 38.85293 23763 ft 423 kts 148°
2026-04-22 05:42 54.53046 38.87874 24168 ft 424 kts 149°
2026-04-22 05:43 54.50514 38.90494 24569 ft 426 kts 149°
2026-04-22 05:43 54.47964 38.93128 24942 ft 428 kts 149°
2026-04-22 05:43 54.45401 38.95772 25293 ft 431 kts 149°
2026-04-22 05:43 54.42825 38.98424 25650 ft 433 kts 149°
2026-04-22 05:44 54.40283 39.01218 25985 ft 435 kts 140°
2026-04-22 05:44 54.38265 39.05078 26293 ft 436 kts 121°
2026-04-22 05:44 54.36962 39.09758 26679 ft 435 kts 110°
2026-04-22 05:44 54.35872 39.14616 27024 ft 438 kts 110°
2026-04-22 05:45 54.34776 39.19427 27306 ft 441 kts 111°
2026-04-22 05:45 54.33623 39.24306 27627 ft 443 kts 111°
2026-04-22 05:45 54.32443 39.29192 27974 ft 444 kts 112°
2026-04-22 05:45 54.31252 39.34087 28286 ft 446 kts 112°
2026-04-22 05:46 54.30055 39.38997 28583 ft 448 kts 112°
2026-04-22 05:46 54.28849 39.43937 28882 ft 450 kts 112°
2026-04-22 05:46 54.27641 39.48882 29170 ft 452 kts 112°
2026-04-22 05:46 54.26424 39.53855 29462 ft 454 kts 112°
2026-04-22 05:47 54.25205 39.58832 29825 ft 453 kts 112°
2026-04-22 05:47 54.24003 39.63726 30216 ft 451 kts 112°
2026-04-22 05:47 54.22789 39.68658 30531 ft 451 kts 112°
2026-04-22 05:47 54.21571 39.73598 30776 ft 452 kts 112°
2026-04-22 05:48 54.20347 39.78548 31028 ft 452 kts 112°
2026-04-22 05:48 54.19122 39.83494 31325 ft 452 kts 112°
2026-04-22 05:48 54.17898 39.88422 31630 ft 451 kts 112°
2026-04-22 05:48 54.16670 39.93359 31886 ft 452 kts 112°
2026-04-22 05:49 54.15439 39.98295 32129 ft 452 kts 112°
2026-04-22 05:49 54.14225 40.03158 32402 ft 452 kts 112°
2026-04-22 05:49 54.12992 40.08082 32676 ft 452 kts 112°
2026-04-22 05:49 54.11761 40.13023 32900 ft 453 kts 111°
2026-04-22 05:50 54.10735 40.18082 33147 ft 452 kts 106°
2026-04-22 05:50 54.09845 40.23221 33427 ft 451 kts 105°
2026-04-22 05:50 54.08995 40.28371 33664 ft 452 kts 105°
2026-04-22 05:50 54.08146 40.33515 33886 ft 452 kts 105°
2026-04-22 05:51 54.07283 40.38657 34097 ft 452 kts 105°
2026-04-22 05:51 54.06403 40.43801 34222 ft 454 kts 105°
2026-04-22 05:51 54.05519 40.48892 34333 ft 454 kts 105°
2026-04-22 05:51 54.04616 40.54037 34447 ft 453 kts 106°
2026-04-22 05:52 54.03712 40.59165 34556 ft 452 kts 106°
2026-04-22 05:52 54.02807 40.64273 34671 ft 451 kts 106°
2026-04-22 05:52 54.01903 40.69369 34787 ft 450 kts 106°
2026-04-22 05:52 54.00997 40.74467 34869 ft 452 kts 106°
2026-04-22 05:53 53.99172 40.84693 34905 ft 458 kts 106°
2026-04-22 05:53 53.97306 40.95105 34906 ft 463 kts 106°
2026-04-22 05:54 53.95425 41.05563 34892 ft 461 kts 105°
2026-04-22 05:54 53.93703 41.15938 34889 ft 453 kts 104°
2026-04-22 05:55 53.92040 41.26247 34910 ft 453 kts 105°
2026-04-22 05:55 53.90363 41.36472 34906 ft 453 kts 105°
2026-04-22 05:56 53.88652 41.46769 34904 ft 454 kts 105°
2026-04-22 05:56 53.86928 41.57064 34908 ft 455 kts 105°
2026-04-22 05:57 53.85194 41.67372 34911 ft 455 kts 105°
2026-04-22 05:57 53.83457 41.77623 34910 ft 456 kts 106°
2026-04-22 05:58 53.81687 41.87955 34913 ft 458 kts 106°
2026-04-22 05:58 53.79903 41.98299 34916 ft 458 kts 106°
2026-04-22 05:59 53.78108 42.08659 34912 ft 459 kts 106°
2026-04-22 05:59 53.76304 42.19022 34907 ft 460 kts 106°
2026-04-22 06:00 53.74502 42.29309 34908 ft 460 kts 107°
2026-04-22 06:00 53.72677 42.39671 34913 ft 460 kts 107°
2026-04-22 06:01 53.70844 42.50025 34905 ft 460 kts 107°
2026-04-22 06:01 53.68990 42.60369 34899 ft 460 kts 110°
2026-04-22 06:02 53.67521 42.65126 34896 ft 458 kts 129°
2026-04-22 06:02 53.65336 42.68902 34899 ft 456 kts 143°
2026-04-22 06:02 53.62618 42.71607 34920 ft 454 kts 156°
2026-04-22 06:02 53.59725 42.73720 34904 ft 454 kts 158°
2026-04-22 06:03 53.53878 42.77772 34899 ft 454 kts 159°
2026-04-22 06:03 53.48040 42.81871 34898 ft 455 kts 158°
2026-04-22 06:04 53.42220 42.86034 34893 ft 455 kts 158°
2026-04-22 06:04 53.36441 42.90182 34900 ft 455 kts 158°
2026-04-22 06:05 53.30601 42.94360 34900 ft 455 kts 158°
2026-04-22 06:05 53.24795 42.98498 34897 ft 455 kts 158°
2026-04-22 06:06 53.18975 43.02635 34899 ft 455 kts 158°
2026-04-22 06:06 53.13163 43.06753 34899 ft 454 kts 158°
2026-04-22 06:07 53.07387 43.10999 34895 ft 454 kts 157°
2026-04-22 06:07 53.01671 43.15279 34895 ft 453 kts 157°
2026-04-22 06:08 52.95908 43.19573 34967 ft 455 kts 157°
2026-04-22 06:08 52.93020 43.21712 35200 ft 454 kts 157°
2026-04-22 06:08 52.90146 43.23837 35426 ft 452 kts 157°
2026-04-22 06:09 52.87272 43.25955 35656 ft 451 kts 157°
2026-04-22 06:09 52.84415 43.28058 35876 ft 449 kts 157°
2026-04-22 06:09 52.78711 43.32243 35896 ft 454 kts 158°
2026-04-22 06:10 52.72922 43.36480 35883 ft 454 kts 158°
2026-04-22 06:10 52.67150 43.40694 35888 ft 453 kts 158°
2026-04-22 06:11 52.61384 43.44891 35879 ft 453 kts 158°
2026-04-22 06:11 52.55666 43.49041 35879 ft 452 kts 158°
2026-04-22 06:12 52.49916 43.53203 35881 ft 451 kts 158°
2026-04-22 06:12 52.44171 43.57348 35879 ft 451 kts 158°
2026-04-22 06:13 52.38427 43.61482 35881 ft 451 kts 158°
2026-04-22 06:13 52.32683 43.65603 35883 ft 451 kts 158°
2026-04-22 06:14 52.26973 43.69688 35879 ft 451 kts 158°
2026-04-22 06:14 52.21193 43.73812 35876 ft 451 kts 158°
2026-04-22 06:15 52.15460 43.77891 35883 ft 451 kts 158°
2026-04-22 06:15 52.09733 43.81953 35876 ft 452 kts 158°
2026-04-22 06:16 52.03968 43.86032 35870 ft 452 kts 158°
2026-04-22 06:16 51.98190 43.90108 35877 ft 453 kts 158°
2026-04-22 06:17 51.92407 43.94175 35872 ft 453 kts 158°
2026-04-22 06:17 51.86623 43.98233 35873 ft 453 kts 158°
2026-04-22 06:18 51.80870 44.02258 35862 ft 453 kts 159°
2026-04-22 06:18 51.75078 44.06298 35866 ft 453 kts 159°
2026-04-22 06:19 51.69293 44.10322 35864 ft 453 kts 159°
2026-04-22 06:19 51.63509 44.14334 35860 ft 452 kts 159°
2026-04-22 06:20 51.57772 44.18304 35863 ft 452 kts 159°
2026-04-22 06:20 51.51993 44.22290 35855 ft 452 kts 159°
2026-04-22 06:21 51.46218 44.26263 35849 ft 451 kts 159°
2026-04-22 06:21 51.40450 44.30220 35851 ft 451 kts 159°
2026-04-22 06:22 51.34729 44.34135 35850 ft 450 kts 159°
2026-04-22 06:22 51.28966 44.38068 35837 ft 450 kts 159°
2026-04-22 06:23 51.23223 44.41978 35837 ft 450 kts 159°
2026-04-22 06:23 51.17407 44.45608 35830 ft 446 kts 168°
2026-04-22 06:24 51.11312 44.46655 35830 ft 441 kts 185°
2026-04-22 06:24 51.08253 44.46357 35839 ft 440 kts 186°
2026-04-22 06:25 51.02158 44.45691 35821 ft 441 kts 186°
2026-04-22 06:25 50.96029 44.45058 35824 ft 441 kts 186°
2026-04-22 06:26 50.89896 44.44469 35820 ft 441 kts 185°
2026-04-22 06:26 50.83805 44.43902 35824 ft 441 kts 185°
2026-04-22 06:27 50.77671 44.43335 35830 ft 442 kts 185°
2026-04-22 06:27 50.71531 44.42767 35818 ft 442 kts 185°
2026-04-22 06:28 50.65391 44.42201 35801 ft 441 kts 185°
2026-04-22 06:28 50.59263 44.41637 35801 ft 441 kts 185°
2026-04-22 06:29 50.53186 44.41079 35809 ft 440 kts 185°
2026-04-22 06:29 50.47070 44.40519 35801 ft 440 kts 185°
2026-04-22 06:30 50.40944 44.39959 35801 ft 440 kts 185°
2026-04-22 06:30 50.34829 44.39402 35796 ft 440 kts 185°
2026-04-22 06:31 50.28763 44.38850 35787 ft 440 kts 186°
2026-04-22 06:31 50.22654 44.38296 35779 ft 440 kts 186°
2026-04-22 06:32 50.16536 44.37743 35773 ft 440 kts 186°
2026-04-22 06:32 50.10430 44.37193 35775 ft 439 kts 186°
2026-04-22 06:33 50.04371 44.36648 35764 ft 439 kts 186°
2026-04-22 06:33 49.98278 44.36101 35753 ft 438 kts 186°
2026-04-22 06:34 49.92198 44.35557 35765 ft 437 kts 186°
2026-04-22 06:34 49.86125 44.35014 35767 ft 437 kts 186°
2026-04-22 06:35 49.80105 44.34478 35765 ft 436 kts 186°
2026-04-22 06:35 49.74043 44.33939 35758 ft 436 kts 186°
2026-04-22 06:36 49.67979 44.33402 35764 ft 436 kts 186°
2026-04-22 06:36 49.61916 44.32865 35756 ft 437 kts 186°
2026-04-22 06:37 49.55880 44.33434 35765 ft 442 kts 171°
2026-04-22 06:37 49.50031 44.36556 35767 ft 448 kts 160°
2026-04-22 06:38 49.44292 44.40313 35758 ft 448 kts 160°
2026-04-22 06:38 49.38538 44.44041 35741 ft 449 kts 161°
2026-04-22 06:39 49.32773 44.47711 35753 ft 449 kts 161°
2026-04-22 06:39 49.27037 44.51333 35759 ft 449 kts 161°
2026-04-22 06:40 49.21252 44.54974 35764 ft 450 kts 161°
2026-04-22 06:40 49.15456 44.58615 35736 ft 451 kts 161°
2026-04-22 06:41 49.09652 44.62254 35752 ft 451 kts 161°
2026-04-22 06:41 49.03892 44.65856 35762 ft 450 kts 161°
2026-04-22 06:42 48.98103 44.69467 35765 ft 449 kts 161°
2026-04-22 06:42 48.92322 44.73065 35743 ft 448 kts 162°
2026-04-22 06:43 48.86562 44.76639 35761 ft 447 kts 162°
2026-04-22 06:43 48.81114 44.81236 35769 ft 455 kts 146°
2026-04-22 06:44 48.76168 44.87201 35780 ft 455 kts 146°
2026-04-22 06:44 48.71229 44.93167 35760 ft 455 kts 146°
2026-04-22 06:45 48.66253 44.99081 35787 ft 455 kts 146°
2026-04-22 06:45 48.61256 45.04965 35798 ft 456 kts 147°
2026-04-22 06:46 48.56247 45.10847 35808 ft 456 kts 147°
2026-04-22 06:46 48.51258 45.16695 35789 ft 457 kts 147°
2026-04-22 06:47 48.46232 45.22574 35804 ft 458 kts 147°
2026-04-22 06:47 48.41185 45.28449 35817 ft 458 kts 148°
2026-04-22 06:48 48.35702 45.33118 35832 ft 451 kts 159°
2026-04-22 06:48 48.30062 45.37154 35809 ft 452 kts 160°
2026-04-22 06:49 48.24387 45.41234 35818 ft 453 kts 160°
2026-04-22 06:49 48.18733 45.45348 35831 ft 453 kts 159°
2026-04-22 06:50 48.13066 45.49485 35832 ft 453 kts 159°
2026-04-22 06:50 48.07421 45.53600 35839 ft 451 kts 160°
2026-04-22 06:51 48.01794 45.57689 35838 ft 451 kts 160°
2026-04-22 06:51 47.96164 45.61768 35849 ft 450 kts 160°
2026-04-22 06:52 47.90517 45.65849 35858 ft 450 kts 160°
2026-04-22 06:52 47.84911 45.69892 35852 ft 449 kts 160°
2026-04-22 06:53 47.80229 45.73261 35848 ft 448 kts 160°
2026-04-22 06:53 47.74608 45.77297 35863 ft 447 kts 161°
2026-04-22 06:54 47.69046 45.81280 35869 ft 447 kts 161°
2026-04-22 06:54 47.63448 45.85280 35867 ft 446 kts 161°
2026-04-22 06:55 47.57855 45.89266 35873 ft 446 kts 161°
2026-04-22 06:55 47.52255 45.93248 35879 ft 447 kts 161°
2026-04-22 06:56 47.46685 45.97200 35879 ft 447 kts 161°
2026-04-22 06:56 47.41069 46.01177 35884 ft 449 kts 161°
2026-04-22 06:57 47.35426 46.05165 35879 ft 450 kts 161°
2026-04-22 06:57 47.29778 46.09159 35881 ft 451 kts 161°
2026-04-22 06:58 47.24159 46.13126 35867 ft 451 kts 161°
2026-04-22 06:58 47.18505 46.17107 35877 ft 451 kts 161°
2026-04-22 06:59 47.12848 46.21081 35889 ft 450 kts 161°
2026-04-22 06:59 47.07243 46.25232 35870 ft 457 kts 153°
2026-04-22 06:59 47.04758 46.28093 35903 ft 465 kts 142°
2026-04-22 07:00 47.02568 46.31637 35869 ft 474 kts 131°
2026-04-22 07:00 46.98985 46.39796 35899 ft 477 kts 127°
2026-04-22 07:01 46.95498 46.48068 35903 ft 477 kts 127°
2026-04-22 07:01 46.91956 46.56293 35903 ft 478 kts 128°
2026-04-22 07:02 46.88402 46.64419 35894 ft 477 kts 128°
2026-04-22 07:02 46.84817 46.72573 35910 ft 477 kts 128°
2026-04-22 07:03 46.81224 46.80728 35911 ft 477 kts 128°
2026-04-22 07:03 46.77624 46.88878 35918 ft 478 kts 128°
2026-04-22 07:04 46.74046 46.96960 35914 ft 477 kts 128°
2026-04-22 07:04 46.70436 47.05090 35925 ft 478 kts 128°
2026-04-22 07:05 46.66844 47.13234 35923 ft 478 kts 128°
2026-04-22 07:05 46.63287 47.21419 35931 ft 479 kts 128°
2026-04-22 07:06 46.59727 47.29596 35923 ft 478 kts 128°
2026-04-22 07:06 46.56184 47.37689 35928 ft 478 kts 128°
2026-04-22 07:07 46.52609 47.45821 35927 ft 477 kts 128°
2026-04-22 07:07 46.49031 47.53935 35906 ft 477 kts 128°
2026-04-22 07:08 46.45479 47.61971 35928 ft 476 kts 128°
2026-04-22 07:08 46.41906 47.70030 35935 ft 475 kts 128°
2026-04-22 07:09 46.38329 47.78074 35934 ft 475 kts 128°
2026-04-22 07:09 46.34750 47.86102 35927 ft 474 kts 128°
2026-04-22 07:10 46.31175 47.94101 35937 ft 473 kts 128°
2026-04-22 07:10 46.27999 48.02404 35936 ft 481 kts 115°
2026-04-22 07:11 46.26322 48.11813 35949 ft 486 kts 105°
2026-04-22 07:11 46.24964 48.21380 35918 ft 486 kts 105°
2026-04-22 07:12 46.23540 48.30913 35933 ft 486 kts 105°
2026-04-22 07:12 46.22074 48.40381 35944 ft 486 kts 106°
2026-04-22 07:13 46.20590 48.49911 35945 ft 487 kts 107°
2026-04-22 07:13 46.19443 48.54453 35916 ft 477 kts 126°
2026-04-22 07:13 46.17455 48.58176 35956 ft 464 kts 142°
2026-04-22 07:13 46.14969 48.61048 35948 ft 454 kts 154°
2026-04-22 07:14 46.12167 48.63002 35935 ft 443 kts 168°
2026-04-22 07:14 46.06306 48.65373 35955 ft 441 kts 171°
2026-04-22 07:15 46.00363 48.67648 35946 ft 443 kts 171°
2026-04-22 07:15 45.94398 48.69982 35954 ft 445 kts 170°
2026-04-22 07:16 45.88425 48.72362 35957 ft 446 kts 170°
2026-04-22 07:16 45.82479 48.74741 35949 ft 447 kts 170°
2026-04-22 07:17 45.76434 48.75875 35952 ft 432 kts 189°
2026-04-22 07:17 45.70456 48.75220 35929 ft 431 kts 190°
2026-04-22 07:18 45.64484 48.74562 35947 ft 430 kts 189°
2026-04-22 07:18 45.58550 48.73953 35957 ft 430 kts 189°
2026-04-22 07:19 45.52576 48.73365 35956 ft 430 kts 189°
2026-04-22 07:19 45.46609 48.72785 35957 ft 430 kts 189°
2026-04-22 07:20 45.40639 48.72206 35953 ft 430 kts 189°
2026-04-22 07:20 45.34677 48.71629 35966 ft 430 kts 189°
2026-04-22 07:21 45.28742 48.71054 35959 ft 430 kts 189°
2026-04-22 07:21 45.22788 48.70310 35946 ft 426 kts 197°
2026-04-22 07:22 45.17354 48.67364 35958 ft 416 kts 213°
2026-04-22 07:22 45.12334 48.63392 35952 ft 416 kts 213°
2026-04-22 07:23 45.07266 48.59412 35961 ft 417 kts 212°
2026-04-22 07:23 45.02169 48.55452 35963 ft 418 kts 212°
2026-04-22 07:24 44.97052 48.51501 35963 ft 420 kts 212°
2026-04-22 07:24 44.91921 48.47551 35959 ft 420 kts 212°
2026-04-22 07:25 44.86813 48.43627 35956 ft 421 kts 212°
2026-04-22 07:25 44.81669 48.39683 35954 ft 421 kts 212°
2026-04-22 07:26 44.76527 48.35749 35945 ft 421 kts 212°
2026-04-22 07:26 44.71384 48.31822 35959 ft 420 kts 212°
2026-04-22 07:27 44.66277 48.27930 35959 ft 420 kts 212°
2026-04-22 07:27 44.61135 48.24018 35959 ft 420 kts 212°
2026-04-22 07:28 44.53417 48.18163 35956 ft 420 kts 212°
2026-04-22 07:28 44.48271 48.14269 35956 ft 420 kts 212°
2026-04-22 07:29 44.43137 48.10391 35948 ft 420 kts 212°
2026-04-22 07:29 44.38012 48.06529 35940 ft 420 kts 212°
2026-04-22 07:30 44.32860 48.02653 35954 ft 420 kts 212°
2026-04-22 07:30 44.27726 47.98800 35958 ft 420 kts 212°
2026-04-22 07:31 44.22582 47.94945 35958 ft 421 kts 212°
2026-04-22 07:31 44.17442 47.91102 35956 ft 422 kts 212°
2026-04-22 07:32 44.12250 47.87228 35947 ft 422 kts 212°
2026-04-22 07:32 44.07103 47.83395 35938 ft 423 kts 212°
2026-04-22 07:33 44.01920 47.79542 35953 ft 423 kts 211°
2026-04-22 07:33 43.96730 47.75693 35946 ft 423 kts 211°
2026-04-22 07:34 43.91531 47.71844 35944 ft 424 kts 211°
2026-04-22 07:34 43.86357 47.68021 35938 ft 425 kts 211°
2026-04-22 07:35 43.81139 47.64173 35944 ft 425 kts 211°
2026-04-22 07:35 43.75911 47.60325 35940 ft 426 kts 211°
2026-04-22 07:36 43.70674 47.56477 35933 ft 426 kts 211°
2026-04-22 07:36 43.65510 47.52578 35924 ft 423 kts 219°
2026-04-22 07:37 43.63442 47.49775 35951 ft 415 kts 236°
2026-04-22 07:37 43.61979 47.46368 35923 ft 412 kts 248°
2026-04-22 07:37 43.61133 47.42611 35928 ft 411 kts 261°
2026-04-22 07:37 43.60755 47.38704 35937 ft 411 kts 263°
2026-04-22 07:38 43.60163 47.30863 35926 ft 411 kts 264°
2026-04-22 07:38 43.59573 47.23076 35921 ft 411 kts 263°
2026-04-22 07:39 43.58935 47.15239 35921 ft 411 kts 263°
2026-04-22 07:39 43.58274 47.07412 35918 ft 411 kts 263°
2026-04-22 07:40 43.57602 46.99578 35916 ft 411 kts 263°
2026-04-22 07:40 43.56924 46.91745 35907 ft 412 kts 263°
2026-04-22 07:41 43.56246 46.83959 35905 ft 412 kts 263°
2026-04-22 07:41 43.55558 46.76124 35907 ft 412 kts 262°
2026-04-22 07:42 43.54864 46.68280 35900 ft 412 kts 262°
2026-04-22 07:42 43.54165 46.60443 35898 ft 412 kts 262°
2026-04-22 07:43 43.53465 46.52662 35894 ft 412 kts 262°
2026-04-22 07:43 43.52756 46.44829 35891 ft 412 kts 262°
2026-04-22 07:44 43.52042 46.37009 35895 ft 411 kts 262°
2026-04-22 07:44 43.51323 46.29199 35889 ft 411 kts 262°
2026-04-22 07:45 43.50605 46.21448 35887 ft 411 kts 262°
2026-04-22 07:45 43.49878 46.13650 35911 ft 410 kts 262°
2026-04-22 07:46 43.49169 46.05991 35625 ft 396 kts 264°
2026-04-22 07:46 43.49087 46.02247 35339 ft 389 kts 272°
2026-04-22 07:46 43.49369 45.98561 35014 ft 384 kts 275°
2026-04-22 07:47 43.49689 45.94925 34638 ft 381 kts 275°
2026-04-22 07:47 43.50001 45.91368 34268 ft 378 kts 275°
2026-04-22 07:47 43.50310 45.87794 33888 ft 374 kts 275°
2026-04-22 07:47 43.50611 45.84246 33451 ft 371 kts 275°
2026-04-22 07:48 43.50905 45.80732 33078 ft 367 kts 274°
2026-04-22 07:48 43.51192 45.77261 32692 ft 363 kts 274°
2026-04-22 07:48 43.51474 45.73824 32337 ft 359 kts 274°
2026-04-22 07:48 43.51752 45.70424 31968 ft 355 kts 274°
2026-04-22 07:49 43.52022 45.67100 31635 ft 352 kts 274°
2026-04-22 07:49 43.52291 45.63766 31273 ft 349 kts 274°
2026-04-22 07:49 43.52557 45.60459 30921 ft 346 kts 274°
2026-04-22 07:49 43.52821 45.57172 30572 ft 343 kts 274°
2026-04-22 07:50 43.53080 45.53920 30226 ft 340 kts 274°
2026-04-22 07:50 43.53338 45.50688 29866 ft 338 kts 274°
2026-04-22 07:50 43.53592 45.47483 29500 ft 335 kts 274°
2026-04-22 07:50 43.53842 45.44319 29155 ft 331 kts 274°
2026-04-22 07:51 43.54086 45.41221 28814 ft 328 kts 274°
2026-04-22 07:51 43.54330 45.38116 28450 ft 325 kts 274°
2026-04-22 07:51 43.54571 45.35034 28122 ft 322 kts 274°
2026-04-22 07:51 43.54808 45.31982 27775 ft 319 kts 274°
2026-04-22 07:52 43.55044 45.28953 27425 ft 317 kts 274°
2026-04-22 07:52 43.55276 45.25947 27096 ft 315 kts 274°
2026-04-22 07:52 43.55507 45.22955 26756 ft 312 kts 274°
2026-04-22 07:52 43.55735 45.19990 26438 ft 311 kts 274°
2026-04-22 07:53 43.55961 45.17035 26093 ft 309 kts 274°
2026-04-22 07:53 43.56182 45.14139 25778 ft 307 kts 274°
2026-04-22 07:53 43.56404 45.11219 25451 ft 306 kts 274°
2026-04-22 07:53 43.56625 45.08308 25125 ft 305 kts 274°
2026-04-22 07:54 43.56844 45.05407 24806 ft 303 kts 274°
2026-04-22 07:54 43.57061 45.02522 24493 ft 302 kts 274°
2026-04-22 07:54 43.57277 44.99645 24164 ft 301 kts 274°
2026-04-22 07:54 43.57491 44.96773 23858 ft 300 kts 274°
2026-04-22 07:55 43.57705 44.93909 23541 ft 300 kts 274°
2026-04-22 07:55 43.57914 44.91093 23185 ft 300 kts 274°
2026-04-22 07:55 43.58125 44.88239 22842 ft 298 kts 274°
2026-04-22 07:55 43.58335 44.85404 22517 ft 296 kts 274°
2026-04-22 07:56 43.58542 44.82586 22217 ft 294 kts 274°
2026-04-22 07:56 43.58747 44.79785 21902 ft 293 kts 274°
2026-04-22 07:56 43.58951 44.76999 21606 ft 291 kts 274°
2026-04-22 07:56 43.59152 44.74229 21293 ft 290 kts 274°
2026-04-22 07:57 43.59353 44.71470 20981 ft 288 kts 274°
2026-04-22 07:57 43.59548 44.68766 20680 ft 287 kts 274°
2026-04-22 07:57 43.59745 44.66031 20388 ft 285 kts 274°
2026-04-22 07:57 43.59941 44.63309 20076 ft 285 kts 274°
2026-04-22 07:58 43.60135 44.60597 19776 ft 284 kts 274°
2026-04-22 07:58 43.60327 44.57895 19487 ft 283 kts 274°
2026-04-22 07:58 43.60519 44.55197 19179 ft 282 kts 274°
2026-04-22 07:58 43.60710 44.52509 18889 ft 281 kts 274°
2026-04-22 07:59 43.60899 44.49829 18592 ft 281 kts 274°
2026-04-22 07:59 43.61085 44.47185 18303 ft 280 kts 274°
2026-04-22 07:59 43.61273 44.44509 17986 ft 280 kts 274°
2026-04-22 07:59 43.61459 44.41837 17652 ft 279 kts 274°
2026-04-22 08:00 43.61645 44.39173 17351 ft 278 kts 274°
2026-04-22 08:00 43.61829 44.36523 17046 ft 277 kts 274°
2026-04-22 08:00 43.62012 44.33881 16748 ft 276 kts 274°
2026-04-22 08:00 43.62194 44.31248 16468 ft 275 kts 273°
2026-04-22 08:01 43.62374 44.28623 16165 ft 275 kts 273°
2026-04-22 08:01 43.62554 44.26000 15864 ft 274 kts 273°
2026-04-22 08:01 43.62731 44.23420 15565 ft 274 kts 273°
2026-04-22 08:01 43.62908 44.20810 15262 ft 273 kts 273°
2026-04-22 08:02 43.63085 44.18200 14963 ft 273 kts 273°
2026-04-22 08:02 43.63267 44.15592 14654 ft 273 kts 275°
2026-04-22 08:02 43.63833 44.13077 14360 ft 278 kts 293°
2026-04-22 08:02 43.64935 44.10855 14062 ft 284 kts 306°
2026-04-22 08:03 43.66266 44.08829 13761 ft 286 kts 308°
2026-04-22 08:03 43.67628 44.06823 13435 ft 287 kts 308°
2026-04-22 08:03 43.68975 44.04839 13102 ft 287 kts 308°
2026-04-22 08:03 43.70337 44.02821 12774 ft 287 kts 308°
2026-04-22 08:04 43.71695 44.00796 12460 ft 287 kts 308°
2026-04-22 08:04 43.73051 43.98765 12157 ft 288 kts 308°
2026-04-22 08:04 43.74406 43.96726 11842 ft 288 kts 308°
2026-04-22 08:04 43.75763 43.94681 11539 ft 289 kts 308°
2026-04-22 08:05 43.77120 43.92632 11235 ft 289 kts 308°
2026-04-22 08:05 43.78462 43.90601 10945 ft 290 kts 308°
2026-04-22 08:05 43.79822 43.88544 10704 ft 288 kts 308°
2026-04-22 08:05 43.81174 43.86497 10415 ft 289 kts 309°
2026-04-22 08:06 43.82531 43.84441 10147 ft 289 kts 309°
2026-04-22 08:06 43.83875 43.82404 10030 ft 284 kts 309°
2026-04-22 08:06 43.85177 43.80374 9814 ft 281 kts 306°
2026-04-22 08:06 43.86392 43.78249 9553 ft 282 kts 304°
2026-04-22 08:07 43.87587 43.76088 9276 ft 282 kts 304°
2026-04-22 08:07 43.88758 43.73958 8996 ft 280 kts 304°
2026-04-22 08:07 43.89936 43.71820 8726 ft 278 kts 304°
2026-04-22 08:07 43.91112 43.69697 8473 ft 277 kts 305°
2026-04-22 08:08 43.92280 43.67583 8224 ft 276 kts 305°
2026-04-22 08:08 43.93446 43.65479 7969 ft 274 kts 306°
2026-04-22 08:08 43.94608 43.63385 7726 ft 273 kts 306°
2026-04-22 08:08 43.95767 43.61294 7457 ft 273 kts 306°
2026-04-22 08:09 43.96927 43.59202 7213 ft 274 kts 306°
2026-04-22 08:09 43.98074 43.57135 6968 ft 275 kts 306°
2026-04-22 08:09 43.99241 43.55030 6701 ft 276 kts 306°
2026-04-22 08:09 44.00409 43.52922 6455 ft 275 kts 306°
2026-04-22 08:10 44.01565 43.50833 6158 ft 271 kts 306°
2026-04-22 08:10 44.02705 43.48774 5943 ft 268 kts 306°
2026-04-22 08:10 44.03842 43.46716 5686 ft 269 kts 306°
2026-04-22 08:10 44.04982 43.44653 5425 ft 269 kts 307°
2026-04-22 08:11 44.06118 43.42595 5186 ft 268 kts 307°
2026-04-22 08:11 44.07237 43.40570 4914 ft 266 kts 307°
2026-04-22 08:11 44.08347 43.38555 4656 ft 258 kts 307°
2026-04-22 08:11 44.09421 43.36603 4412 ft 249 kts 308°
2026-04-22 08:12 44.10458 43.34721 4187 ft 241 kts 308°
2026-04-22 08:12 44.11458 43.32906 4018 ft 230 kts 308°
2026-04-22 08:12 44.12337 43.31134 3998 ft 215 kts 303°
2026-04-22 08:12 44.13122 43.29444 3964 ft 199 kts 303°
2026-04-22 08:13 44.13837 43.27881 3925 ft 185 kts 303°
2026-04-22 08:13 44.14508 43.26391 3707 ft 179 kts 305°
2026-04-22 08:13 44.15159 43.24956 3488 ft 178 kts 305°
2026-04-22 08:13 44.15814 43.23511 3241 ft 174 kts 304°
2026-04-22 08:14 44.16452 43.22089 3012 ft 173 kts 304°
2026-04-22 08:14 44.17076 43.20702 2793 ft 164 kts 305°
2026-04-22 08:14 44.17662 43.19402 2528 ft 151 kts 306°
2026-04-22 08:14 44.18210 43.18191 2367 ft 152 kts 305°
2026-04-22 08:15 44.18771 43.16949 2179 ft 152 kts 306°
2026-04-22 08:15 44.19328 43.15716 1969 ft 148 kts 306°
2026-04-22 08:15 44.19871 43.14515 1748 ft 147 kts 304°
2026-04-22 08:15 44.20418 43.13317 1573 ft 151 kts 303°
2026-04-22 08:16 44.20974 43.12059 1392 ft 154 kts 301°
2026-04-22 08:16 44.21514 43.10818 1195 ft 145 kts 303°
2026-04-22 08:16 44.22062 43.09647 1062 ft 142 kts 303°
2026-04-22 08:16 44.22516 43.08662 1055 ft 91 kts 303°
2026-04-22 08:17 44.22753 43.08141 1049 ft 40 kts 302°
2026-04-22 08:17 44.22872 43.07881 1049 ft 25 kts 302°
2026-04-22 08:17 44.22961 43.07684 1049 ft 24 kts 302°
2026-04-22 08:17 44.23031 43.07559 1051 ft 8 kts 323°
2026-04-22 08:18 44.23022 43.07502 1051 ft 5 kts 197°
2026-04-22 08:18 44.23002 43.07534 1051 ft 5 kts 104°
2026-04-22 08:18 44.22986 43.07619 1050 ft 11 kts 105°
2026-04-22 08:18 44.22949 43.07710 1049 ft 11 kts 123°
2026-04-22 08:19 44.22909 43.07795 1050 ft 11 kts 122°
2026-04-22 08:19 44.22861 43.07903 1048 ft 16 kts 122°
2026-04-22 08:19 44.22800 43.08037 1048 ft 16 kts 122°
2026-04-22 08:19 44.22741 43.08168 1049 ft 16 kts 122°
2026-04-22 08:20 44.22678 43.08307 1049 ft 17 kts 122°
2026-04-22 08:20 44.22614 43.08447 1053 ft 17 kts 122°
2026-04-22 08:20 44.22553 43.08583 1052 ft 16 kts 122°
2026-04-22 08:20 44.22490 43.08709 1054 ft 15 kts 132°
2026-04-22 08:21 44.22410 43.08801 1052 ft 15 kts 145°
2026-04-22 08:21 44.22332 43.08863 1051 ft 11 kts 152°
2026-04-22 08:21 44.22264 43.08913 1052 ft 11 kts 152°
2026-04-22 08:21 44.22197 43.08962 1052 ft 11 kts 152°
2026-04-22 08:22 44.22135 43.09008 1052 ft 9 kts 152°
2026-04-22 08:22 44.22085 43.09046 1051 ft 7 kts 152°
2026-04-22 08:22 44.22041 43.09078 1051 ft 7 kts 152°
2026-04-22 08:22 44.21998 43.09109 1050 ft 7 kts 153°
2026-04-22 08:23 44.21953 43.09128 1050 ft 7 kts 180°
2026-04-22 08:23 44.21910 43.09103 1050 ft 7 kts 211°
2026-04-22 08:23 44.21870 43.09072 1050 ft 7 kts 204°
2026-04-22 08:23 44.21828 43.09048 1050 ft 6 kts 206°
2026-04-22 08:24 44.21791 43.09017 1050 ft 5 kts 212°
2026-04-22 08:24 44.21770 43.08998 1050 ft 2 kts 212°
2026-04-22 08:24 44.21759 43.08989 1050 ft 1 kts 212°
2026-04-22 08:24 44.21756 43.08986 1050 ft 0 kts 212°